Weather History for Sheridan, WY

Change the Weather History Date:

Tuesday, July 30, 2013

  Actual Average Record
Temperature  
Mean Temperature 67 °F 72 °F  
Max Temperature 82 °F 89 °F 103 °F (1988)
Min Temperature 52 °F 54 °F 36 °F (1971)
Degree Days  
Heating Degree Days 0 0  
Month to date heating degree days 1 24  
Since 1 June heating degree days 121 173  
Since 1 July heating degree days 1 24  
Cooling Degree Days 2 7  
Month to date cooling degree days 218 177  
Year to date cooling degree days 274 227  
Since 1 June cooling degree days 266 223  
Growing Degree Days 18 (Base 50)    
Moisture  
Dew Point 53 °F    
Average Humidity 60    
Maximum Humidity 86    
Minimum Humidity 33    
Precipitation  
Precipitation 0.05 in 0.04 in 0.44 in (1911)
Month to date precipitation 0.43 1.15  
Year to date precipitation 9.94 9.30  
Sea Level Pressure  
Sea Level Pressure 30.09 in    
Wind  
Wind Speed 6 mph (West)    
Max Wind Speed 26 mph    
Max Gust Speed 35 mph    
Visibility 10 miles    
Events Rain , Thunderstorm    
T = Trace of Precipitation, MM = Missing Value Source: NWS Daily Summary

Daily Weather History Graph

Daily Weather History Graph

Search for Another Location

Airport:

Trip Planner

Search our weather history database for the weather conditions in past years. The results will help you decide how hot, cold, wet, or windy it might be!

Date:

Astronomy

Jul. 30, 2013 Rise Set
Actual Time 5:52 AM MDT 8:35 PM MDT
Civil Twilight 5:18 AM MDT 9:09 PM MDT
Nautical Twilight 4:35 AM MDT 9:51 PM MDT
Astronomical Twilight 3:45 AM MDT 10:41 PM MDT
Moon 12:13 AM MDT (7/30) 2:58 PM MDT (7/30)
Length of Visible Light 15h 51m
Length of Day
14h 43m
Last Quarter, 40% of the Moon is Illuminated
Jul 30
Last Quarter
Aug 6
New
Aug 14
First Quarter
Aug 20
Full
Aug 28
Last Quarter

Hourly Weather History & Observations

Time (MDT) Temp. Dew Point Humidity Pressure Visibility Wind Dir Wind Speed Gust Speed Precip Events Conditions
12:53 AM 64.9 °F 52.0 °F 63% 29.98 in 10.0 mi ESE 4.6 mph - N/A   Clear
1:53 AM 66.0 °F 52.0 °F 60% 29.95 in 10.0 mi SSE 5.8 mph - N/A   Clear
2:53 AM 59.0 °F 52.0 °F 78% 29.97 in 10.0 mi WNW 5.8 mph - N/A   Clear
3:53 AM 60.1 °F 53.1 °F 78% 29.98 in 10.0 mi NW 5.8 mph - N/A   Clear
4:53 AM 55.0 °F 50.0 °F 83% 29.98 in 10.0 mi SW 6.9 mph - N/A   Clear
5:53 AM 53.1 °F 48.9 °F 86% 29.99 in 10.0 mi Calm Calm - N/A   Clear
6:53 AM 57.9 °F 52.0 °F 81% 30.01 in 10.0 mi NNW 5.8 mph - N/A   Clear
7:53 AM 62.1 °F 51.1 °F 67% 30.05 in 10.0 mi NW 9.2 mph - N/A   Clear
8:53 AM 66.9 °F 52.0 °F 59% 30.08 in 10.0 mi NW 6.9 mph - N/A   Clear
9:53 AM 71.1 °F 54.0 °F 55% 30.06 in 10.0 mi Variable 4.6 mph - N/A   Clear
10:53 AM 73.9 °F 53.1 °F 48% 30.07 in 10.0 mi North 8.1 mph - N/A   Clear
11:53 AM 77.0 °F 52.0 °F 42% 30.08 in 10.0 mi WNW 8.1 mph 17.3 mph N/A   Clear
12:53 PM 78.1 °F 52.0 °F 40% 30.06 in 10.0 mi Variable 6.9 mph - N/A   Clear
1:53 PM 71.1 °F 54.0 °F 55% 30.09 in 10.0 mi NW 9.2 mph - 0.00 in   Mostly Cloudy
2:03 PM 73.4 °F 53.6 °F 50% 30.18 in 10.0 mi WNW 6.9 mph - N/A Thunderstorm Scattered Clouds
2:26 PM 73.4 °F 51.8 °F 47% 30.17 in 10.0 mi SSE 4.6 mph - N/A   Clear
2:53 PM 78.1 °F 53.1 °F 42% 30.06 in 10.0 mi ENE 5.8 mph - N/A   Clear
3:53 PM 80.1 °F 48.9 °F 34% 30.04 in 10.0 mi Variable 3.5 mph 16.1 mph N/A   Clear
4:53 PM 79.0 °F 51.1 °F 38% 30.06 in 10.0 mi North 5.8 mph - N/A   Clear
5:09 PM 77.0 °F 51.8 °F 41% 30.18 in 10.0 mi West 8.1 mph - N/A Thunderstorm Mostly Cloudy
5:27 PM 71.6 °F 55.4 °F 57% 30.20 in 10.0 mi WSW 26.5 mph 34.5 mph 0.00 in Rain Light Rain
5:37 PM 64.4 °F 57.2 °F 77% 30.18 in 10.0 mi South 17.3 mph 29.9 mph 0.00 in Rain , Thunderstorm Light Rain
5:53 PM 69.1 °F 57.0 °F 65% 30.13 in 10.0 mi WSW 5.8 mph - 0.00 in Thunderstorm Scattered Clouds
6:09 PM 71.6 °F 55.4 °F 57% 30.19 in 10.0 mi SSW 8.1 mph - N/A   Clear
6:53 PM 70.0 °F 55.9 °F 61% 30.12 in 10.0 mi WSW 3.5 mph - N/A   Clear
7:53 PM 69.1 °F 52.0 °F 54% 30.13 in 10.0 mi NW 13.8 mph - N/A   Partly Cloudy
8:53 PM 60.1 °F 52.0 °F 75% 30.18 in 10.0 mi WSW 11.5 mph - 0.04 in Rain Rain
9:53 PM 59.0 °F 54.0 °F 83% 30.21 in 10.0 mi Calm Calm - 0.01 in   Overcast
10:53 PM 57.9 °F 54.0 °F 87% 30.22 in 10.0 mi NE 4.6 mph - N/A   Scattered Clouds
11:53 PM 57.9 °F 53.1 °F 84% 30.19 in 10.0 mi South 8.1 mph - N/A   Clear